OVERFALLS Weather Reports


time (UTC)temp
C
wind
direction
speed
KPH
gust
KPH
rain 1hr
cm
rain 24hr
cm
rain mn
cm
humidity
%
barometer
mb
20260504081544 10 264 9.7 25.7 0.00 0.00 0.00 75 1016.7
20260504044546 9 243 6.4 12.9 0.00 0.00 0.00 58 1016.6
20260504043053 9 193 6.4 11.3 0.00 0.00 0.00 58 1016.6
20260504041549 9 190 4.8 12.9 0.00 0.00 0.00 58 1016.4
20260504040046 9 201 6.4 11.3 0.00 0.00 0.00 57 1016.2
20260504034547 9 205 4.8 11.3 0.00 0.00 0.00 56 1016.1
20260504033050 9 196 4.8 9.7 0.00 0.00 0.00 55 1016.0
20260504031544 10 360 4.8 9.7 0.00 0.00 0.00 55 1016.0
20260504030041 10 360 6.4 9.7 0.00 0.00 0.00 54 1016.0
20260504024546 10 194 3.2 8.0 0.00 0.00 0.00 54 1016.0
20260504023042 10 203 4.8 11.3 0.00 0.00 0.00 53 1015.9
20260504021541 10 203 3.2 6.4 0.00 0.00 0.00 52 1016.0
20260504020041 10 203 3.2 8.0 0.00 0.00 0.00 51 1016.0
20260504014543 10 203 3.2 9.7 0.00 0.00 0.00 51 1015.9
20260504013055 11 263 1.6 9.7 0.00 0.00 0.00 49 1015.7
20260504011541 11 263 0.0 4.8 0.00 0.00 0.00 47 1015.6
20260504010043 11 263 3.2 6.4 0.00 0.00 0.00 47 1015.5
20260504004541 12 263 1.6 4.8 0.00 0.00 0.00 45 1015.5
20260504003039 12 263 1.6 4.8 0.00 0.00 0.00 44 1015.3
20260504001547 12 360 1.6 4.8 0.00 0.00 0.00 42 1014.9
20260504000041 13 360 3.2 6.4 0.00 0.00 0.00 40 1014.8
20260503234543 13 360 3.2 11.3 0.00 0.00 0.00 39 1014.8
20260503233040 14 281 6.4 19.3 0.00 0.00 0.00 38 1014.7
20260503231543 14 275 11.3 27.4 0.00 0.00 0.00 37 1014.7
20260503230044 15 261 8.0 22.5 0.00 0.00 0.00 37 1014.6
20260503224542 15 273 9.7 29.0 0.00 0.00 0.00 37 1014.6
20260503223044 15 240 8.0 25.7 0.00 0.00 0.00 37 1014.5
20260503221556 15 270 8.0 22.5 0.00 0.00 0.00 37 1014.5
20260503220043 15 5 11.3 27.4 0.00 0.00 0.00 36 1014.5
20260503214541 15 301 12.9 25.7 0.00 0.00 0.00 35 1014.4
20260503213046 15 246 8.0 37.0 0.00 0.00 0.00 37 1014.3
20260503211544 15 271 11.3 32.2 0.00 0.00 0.00 35 1014.4
20260503210042 15 241 16.1 37.0 0.00 0.00 0.00 34 1014.2
20260503204549 15 302 17.7 35.4 0.00 0.00 0.00 35 1014.2
20260503203044 15 274 17.7 29.0 0.00 0.00 0.00 34 1014.3
20260503201541 15 265 17.7 40.2 0.00 0.00 0.00 33 1014.2
20260503200042 15 272 20.9 41.8 0.00 0.00 0.00 34 1014.4
20260503194546 15 262 11.3 37.0 0.00 0.00 0.00 34 1014.6
20260503193106 15 360 9.7 32.2 0.00 0.00 0.00 35 1014.6
20260503191604 15 249 12.9 32.2 0.00 0.00 0.00 37 1014.6
20260503190042 14 277 11.3 38.6 0.00 0.00 0.00 37 1014.7
20260503184544 14 279 11.3 29.0 0.00 0.00 0.00 37 1014.7
20260503183042 14 342 11.3 41.8 0.00 0.00 0.00 37 1014.9
20260503181551 14 327 11.3 22.5 0.00 0.00 0.00 39 1015.0
20260503180049 13 343 12.9 29.0 0.00 0.00 0.00 42 1014.9
20260503174548 13 355 11.3 27.4 0.00 0.00 0.00 46 1015.0
20260503173041 13 337 11.3 24.1 0.00 0.00 0.00 45 1014.9
20260503171545 13 254 14.5 27.4 0.00 0.00 0.00 43 1015.1